This demonstration page uses our WeatherBlox Daily Observations layout. Learn more.

38.88101, -77.10428

Hourly Observations for June 9, 2017

Temp ( °F °C ) Dew Point ( °F °C ) Humidity (%) Winds ( mph kmh ) Pressure ( in mb ) Visibility ( mi km ) Precip ( " mm )
12:52 am 00:52 Partly Cloudy 63 17.2 51 10.6 65 65 S 5 7 29.83 1010 10 16.0934 0 0
1:52 am 01:52 Mostly Cloudy 62 16.7 52 11.1 70 70 SW 6 9 29.81 1010 10 16.0934 0 0
2:52 am 02:52 Mostly Cloudy 61 16.1 53 11.7 75 75 SSW 5 7 29.8 1009 10 16.0934 0 0
3:52 am 03:52 Mostly Cloudy 60 15.6 53 11.7 78 78 SSW 6 9 29.8 1009 10 16.0934 0 0
4:52 am 04:52 Partly Cloudy 60 15.6 52 11.1 75 75 S 5 7 29.8 1009 10 16.0934 0 0
5:52 am 05:52 Partly Cloudy 61 16.1 52 11.1 72 72 Calm 29.81 1009 10 16.0934 0 0
6:52 am 06:52 Mostly Sunny 62 16.7 54 12.2 75 75 SW 6 9 29.83 1010 10 16.0934 0 0
7:52 am 07:52 Mostly Sunny 67 19.4 54 12.2 63 63 WSW 6 9 29.84 1011 10 16.0934 0 0
8:52 am 08:52 Sunny 72 22.2 55 12.8 55 55 WNW 9 15 29.86 1011 10 16.0934 0 0
9:52 am 09:52 Sunny 75 23.9 55 12.8 50 50 NW 9 15 29.86 1011 10 16.0934 0 0
10:52 am 10:52 Mostly Sunny 77 25 54 12.2 45 45 undefined N/A 29.87 1011 10 16.0934 0 0
11:52 am 11:52 Mostly Sunny 79 26.1 53 11.7 41 41 W 13 20 29.87 1012 10 16.0934 0 0
12:52 pm 12:52 Partly Cloudy 79 26.1 53 11.7 41 41 WNW 12 19 29.87 1012 10 16.0934 0 0
1:52 pm 13:52 Partly Cloudy 80 26.7 51 10.6 37 37 NNW 10 17 29.85 1011 10 16.0934 0 0
2:52 pm 14:52 Partly Cloudy 82 27.8 50 10 33 33 W 13 20 29.85 1011 10 16.0934 0 0
3:52 pm 15:52 Partly Cloudy 83 28.3 53 11.7 36 36 NNW 10 17 29.85 1011 10 16.0934 0 0
4:52 pm 16:52 Partly Cloudy 82 27.8 49 9.4 32 32 WNW 8 13 29.85 1011 10 16.0934 0 0
5:52 pm 17:52 Partly Cloudy 81 27.2 51 10.6 35 35 W 9 15 29.85 1011 10 16.0934 0 0
6:52 pm 18:52 Mostly Sunny 81 27.2 49 9.4 33 33 W 9 15 29.87 1011 10 16.0934 0 0
7:52 pm 19:52 Mostly Sunny 80 26.7 50 10 35 35 WNW 8 13 29.89 1012 10 16.0934 0 0
8:52 pm 20:52 Mostly Clear 78 25.6 51 10.6 39 39 WSW 7 11 29.9 1013 10 16.0934 0 0
9:52 pm 21:52 Mostly Clear 75 23.9 53 11.7 46 46 SW 7 11 29.93 1014 10 16.0934 0 0
10:52 pm 22:52 Mostly Clear 73 22.8 59 15 62 62 SSW 5 7 29.96 1015 10 16.0934 0 0
11:52 pm 23:52 Partly Cloudy 71 21.7 58 14.4 63 63 S 7 11 29.97 1015 10 16.0934 0 0

Powered by AerisWeather